Main page


Airports :

Naxos, Greece

Naxos Island National Airport

latitude: 37-04-47N, longitude: 025-22-01E, elevation: 3 m

Current weather observation

The report was made 21 hours and 26 minutes ago, at 08:50 UTC
Wind 12 kt from the South/Southwest
Temperature 18°C
Humidity 64%
Pressure 1008 hPa
Visibility 10 km or more
Few clouds at a height of 2000 ft

METAR: LGNX 190850Z 20012KT 9999 FEW020 18/11 Q1008

Time: 08:16 (06:16 UTC)

TAF: missing

Weather observations and forecasts of more than 4000 airports (METAR and TAF reports).

The available stations are represented by yellow and red dots on the map.

Hover mouse over dot to see the name of the station.

Then click to see weather observations and forecasts.

To change the map : click on the green buttons with a black cross to zoom in, on the green button with a dash to zoom out, or on the green arrows for adjacent maps.